Location: Lecco
(45.8566°N, 9.3977°E)
Time: 03:08:33
(UTC+01:00)

Envisat - Pass Details

Date: 29 October 2019
Orbit: 764 x 766 km, 98.1° (Epoch: 11 November)

Event Time Altitude Azimuth Distance (km) Brightness Sun altitude
Rises 19:35:25 0° 206° (SSW) 3,219 6.5 -25.2°
Reaches altitude 10° 19:38:21 10° 224° (SW) 2,299 5.9 -25.7°
Maximum altitude 19:41:57 19° 269° (W) 1,744 5.6 -26.3°
Drops below altitude 10° 19:45:34 10° 315° (NW) 2,310 6.1 -26.9°
Sets 19:48:32 0° 333° (NNW) 3,242 6.7 -27.4°
